Weather History for KAEG - January, 2014

Change the Weather History Date:

Friday, January 17, 2014

  Actual Average Record
Temperature  
Mean Temperature 36 °F -  
Max Temperature 50 °F - - ()
Min Temperature 21 °F - - ()
Degree Days  
Heating Degree Days 30    
Moisture  
Dew Point 9 °F    
Average Humidity 40    
Maximum Humidity 63    
Minimum Humidity 20    
Precipitation  
Precipitation 0.00 in - - ()
Sea Level Pressure  
Sea Level Pressure 30.25 in    
Wind  
Wind Speed 8 mph (NW)    
Max Wind Speed 15 mph    
Max Gust Speed -    
Visibility 10 miles    
Events      
T = Trace of Precipitation, MM = Missing Value Source: NWS Daily Summary

Daily Weather History Graph

Daily Weather History Graph

Search for Another Location

Airport or City:

Trip Planner

Search our weather history database for the weather conditions in past years. The results will help you decide how hot, cold, wet, or windy it might be!

Date:

Astronomy

Jan. 17, 2014 Rise Set
Actual Time 7:14 AM MST 5:20 PM MST
Civil Twilight 6:46 AM MST 5:48 PM MST
Nautical Twilight 6:15 AM MST 6:19 PM MST
Astronomical Twilight 5:45 AM MST 6:49 PM MST
Moon 7:04 PM MST (1/17) 7:48 AM MST (1/17)
Length of Visible Light 11h 01m
Length of Day
10h 06m
Full, 98% of the Moon is Illuminated
Jan 17
Full
Jan 23
Last Quarter
Jan 30
New
Feb 6
First Quarter
Feb 14
Full

Hourly Weather History & Observations

Time (MST) Temp. Windchill Dew Point Humidity Pressure Visibility Wind Dir Wind Speed Gust Speed Precip Events Conditions
12:15 AM 30.0 °F 21.7 °F 6.3 °F 37% 30.25 in 10.0 mi WNW 9.2 mph - N/A   Clear
12:35 AM 23.2 °F 14.1 °F 4.8 °F 45% 30.25 in 10.0 mi WNW 8.1 mph - N/A   Clear
12:55 AM 30.0 °F 21.1 °F 6.8 °F 38% 30.25 in 10.0 mi NW 10.4 mph - N/A   Clear
1:15 AM 28.6 °F 19.9 °F 6.8 °F 40% 30.25 in 10.0 mi NW 9.2 mph - N/A   Clear
1:35 AM 30.2 °F 20.2 °F 7.3 °F 38% 30.26 in 10.0 mi NW 12.7 mph - N/A   Clear
1:55 AM 30.0 °F 20.5 °F 7.0 °F 38% 30.27 in 10.0 mi NNW 11.5 mph - N/A   Clear
2:15 AM 27.9 °F 21.5 °F 7.2 °F 42% 30.28 in 10.0 mi NNW 5.8 mph - N/A   Clear
2:35 AM 26.6 °F 18.2 °F 6.6 °F 43% 30.29 in 10.0 mi NNE 8.1 mph - N/A   Clear
2:55 AM 28.4 °F 17.0 °F 7.5 °F 41% 30.29 in 10.0 mi North 15.0 mph - N/A   Clear
3:15 AM 30.0 °F 19.5 °F 7.9 °F 39% 30.29 in 10.0 mi North 13.8 mph - N/A   Clear
3:35 AM 30.4 °F 21.0 °F 9.1 °F 41% 30.29 in 10.0 mi North 11.5 mph - N/A   Clear
3:55 AM 26.2 °F 17.1 °F 7.7 °F 46% 30.28 in 10.0 mi NNW 9.2 mph - N/A   Clear
4:15 AM 26.8 °F 16.5 °F 10.2 °F 50% 30.28 in 10.0 mi North 11.5 mph - N/A   Clear
4:35 AM 22.6 °F 12.6 °F 8.1 °F 54% 30.28 in 10.0 mi NNW 9.2 mph - N/A   Clear
5:50 AM 21.2 °F 10.9 °F 10.4 °F 63% 30.29 in 10.0 mi North 9.2 mph - N/A   Clear
6:48 AM 24.8 °F 14.0 °F 10.4 °F 54% 30.29 in 10.0 mi NNW 11.5 mph - N/A   Scattered Clouds
7:50 AM 21.2 °F 13.6 °F 10.4 °F 63% 30.31 in 10.0 mi West 5.8 mph - N/A   Partly Cloudy
8:49 AM 32.0 °F - 14.0 °F 48% 30.33 in 10.0 mi Calm Calm - N/A   Partly Cloudy
9:49 AM 35.6 °F 31.7 °F 15.8 °F 44% 30.34 in 10.0 mi Variable 4.6 mph - N/A   Clear
10:49 AM 37.4 °F 33.8 °F 15.8 °F 41% 30.32 in 10.0 mi Variable 4.6 mph - N/A   Clear
11:49 AM 42.8 °F - 15.8 °F 34% 30.28 in 10.0 mi Calm Calm - N/A   Clear
12:50 PM 46.4 °F 42.9 °F 10.4 °F 23% 30.25 in 10.0 mi WNW 6.9 mph - N/A   Clear
1:50 PM 48.2 °F - 10.4 °F 22% 30.22 in 10.0 mi WSW 6.9 mph - N/A   Clear
2:50 PM 50.0 °F - 10.4 °F 20% 30.20 in 10.0 mi WSW 6.9 mph - N/A   Clear
3:48 PM 50.0 °F - 10.4 °F 20% 30.19 in 10.0 mi Calm Calm - N/A   Clear
4:50 PM 48.2 °F - 10.4 °F 22% 30.20 in 10.0 mi WNW 10.4 mph - N/A   Clear
5:50 PM 39.2 °F 35.0 °F 10.4 °F 31% 30.20 in 10.0 mi Variable 5.8 mph - N/A   Clear
6:50 PM 39.2 °F 34.2 °F 10.4 °F 31% 30.20 in 10.0 mi West 6.9 mph - N/A   Clear
7:48 PM 39.2 °F 35.0 °F 10.4 °F 31% 30.20 in 10.0 mi Variable 5.8 mph - N/A   Clear
8:50 PM 28.4 °F 23.3 °F 6.8 °F 40% 30.20 in 10.0 mi West 4.6 mph - N/A   Clear
9:15 PM 32.4 °F - 8.8 °F 37% 30.20 in 10.0 mi Calm Calm - N/A   Clear
9:35 PM 32.4 °F - 8.6 °F 37% 30.20 in 10.0 mi Calm Calm - N/A   Clear
9:55 PM 23.4 °F - 5.4 °F 46% 30.20 in 10.0 mi Calm Calm - N/A   Clear
10:15 PM 26.4 °F 22.4 °F 7.5 °F 45% 30.20 in 10.0 mi NNW 3.5 mph - N/A   Clear
10:35 PM 23.7 °F 17.8 °F 6.8 °F 49% 30.20 in 10.0 mi NW 4.6 mph - N/A   Clear
10:55 PM 27.0 °F 19.5 °F 7.7 °F 44% 30.20 in 10.0 mi NNW 6.9 mph - N/A   Clear
11:15 PM 25.7 °F 19.0 °F 7.3 °F 46% 30.20 in 10.0 mi NNW 5.8 mph - N/A   Clear
11:35 PM 25.0 °F 18.1 °F 7.3 °F 47% 30.20 in 10.0 mi NNW 5.8 mph - N/A   Clear
11:55 PM 24.3 °F 18.4 °F 6.1 °F 46% 30.21 in 10.0 mi NW 4.6 mph - N/A   Clear